Regional Weather Roundup
Issued by NWS San Angelo, TX

Current Version | Previous Version | Text Only | Print | Product List | Glossary On
Versions: 1 2 3 4 5 6 7 8 9 10 11 12 13 14 15 16 17 18 19 20 21 22 23 24 25 26 27 28 29 30 31 32 33 34 35 36 37 38 39 40 41 42 43 44 45 46 47 48 49 50
000
ASUS44 KSJT 280710
RWRSJT
WEST CENTRAL TEXAS REGIONAL WEATHER ROUNDUP
NATIONAL WEATHER SERVICE SAN ANGELO TX
100 AM CST TUE FEB 28 2017

NOTE: "FAIR" INDICATES FEW OR NO CLOUDS BELOW 12,000 FEET WITH NO
SIGNIFICANT WEATHER AND/OR OBSTRUCTIONS TO VISIBILITY.

TXZ049-054-064>066-071>073-076>078-098-099-113-114-127-128-139-140-
154-155-168>170-280800
...LOCATIONS ACROSS WEST CENTRAL TEXAS...

CITY           SKY/WX    TMP DP  RH WIND       PRES   REMARKS
SAN ANGELO     PTCLDY    65  54  67 S16       29.88S
ABILENE        CLEAR     61  56  83 S10       29.87F
DYESS AFB      CLEAR     60  50  69 SW10      29.85F
JUNCTION       MOCLDY    65  61  87 SE3       29.93S
SWEETWATER     PTCLDY    56  41  56 S8        29.91R
BROWNWOOD      CLEAR     64  59  82 SE8       29.89F
COLEMAN        SUNNY     63  57  82 S10       29.89S
SONORA         CLEAR     55  52  88 CALM      29.97S
OZONA          FAIR      61  50  67 MISG      29.95S
BRADY          NOT AVBL
$$

TEXAS PANHANDLE/OKLAHOMA PANHANDLE

CITY           SKY/WX    TMP DP  RH WIND       PRES   REMARKS
AMARILLO       PTCLDY    50  21  32 SW14      29.82S
BORGER         CLOUDY    55  18  23 SW16      29.76F
CANADIAN       CLOUDY    53  22  30 SW8       29.75S
DALHART        CLEAR     48  16  27 SW18      29.76F
DUMAS          CLOUDY    46  16  29 SW17      29.76S WCI  39
GUYMON         NOT AVBL
HEREFORD       MOSUNNY   57  22  25 W17       29.83F
PAMPA          MOSUNNY   51  21  30 SW14      29.78F
PERRYTON       PTCLDY    51  21  30 SW15      29.72F
$$

SOUTHERN PANHANDLE/SOUTH PLAINS/ROLLING PLAINS

CITY           SKY/WX    TMP DP  RH WIND       PRES   REMARKS
LUBBOCK        CLOUDY    61  22  22 SW14      29.86F
SNYDER         CLOUDY    58  26  28 S8        29.89R
CHILDRESS      CLOUDY    55  27  34 S10       29.81S
SEMINOLE       MOSUNNY   55  24  31 SW7       29.90F
$$

PERMIAN BASIN

CITY           SKY/WX    TMP DP  RH WIND       PRES   REMARKS
MIDLAND        CLEAR     55  27  34 CALM      29.92S
ODESSA         CLEAR     59  21  23 CALM      29.92F
WINK           PTCLDY    54  20  26 SE12      29.89F
$$

FAR WEST/SOUTHWEST MOUNTAINS/TRANS PECOS

CITY           SKY/WX    TMP DP  RH WIND       PRES   REMARKS
ALPINE         CLOUDY    58  20  22 W9        30.04S
DRYDEN           N/A     60  45  57 NE5       29.89S
EL PASO        MOCLDY    61  28  28 SW12      29.94F
FORT STOCKTON  MOCLDY    58  35  42 SW9       29.92S
GUADALUPE PASS CLOUDY    53  28  38 SW24      30.00S
MARFA          CLOUDY    45  20  36 CALM      30.03F
PECOS          CLOUDY    51  21  30 CALM      29.91S
$$

DALLAS/FORT WORTH METROPLEX

CITY           SKY/WX    TMP DP  RH WIND       PRES   REMARKS
DFW AIRPORT    MOCLDY    69  64  84 S14       29.87S
FTW MEACHAM    PTCLDY    71  63  75 S17G24    29.88S
DAL-EXECUTIVE  PTCLDY    69  65  86 S9        29.89S
GRAND PRAIRIE  MOCLDY    69  63  80 S12       29.90F
ADDISON        MOCLDY    70  64  81 S8        29.91S
MESQUITE       MOSUNNY   67  64  87 S13       29.90F
LANCASTER      MOSUNNY   66  63  87 S9        29.92S
$$

NORTH CENTRAL TEXAS

CITY           SKY/WX    TMP DP  RH WIND       PRES   REMARKS
SHRMAN/DENISON CLOUDY    62  61  95 SE10      29.89S FOG
GAINESVILLE    CLOUDY    63  59  89 SE5       29.88F
BRIDGEPORT     CLOUDY    70  60  69 S12G20    29.87S
DENTON         CLOUDY    66  63  90 S12       29.87S
WAXAHACHIE     MOSUNNY   67  66  99 S9        29.92S
GRANBURY       SUNNY     64  60  87 E3        29.90R
$$

WESTERN NORTH TEXAS

CITY           SKY/WX    TMP DP  RH WIND       PRES   REMARKS
WICHITA FALLS  CLOUDY    65  58  78 S13       29.82S
VERNON         CLOUDY    58  44  60 S9        29.83R
BRECKENRIDGE   PTSUNNY   67  59  73 S12       29.86F
COMANCHE       CLEAR     65  61  85 S13       29.90R
$$

CENTRAL AND SOUTH CENTRAL TEXAS

CITY           SKY/WX    TMP DP  RH WIND       PRES   REMARKS
AUSTIN/BERGSTM CLOUDY    72  67  84 S13       29.93F
WACO           CLOUDY    68  66  93 S16       29.92R
HILLSBORO        N/A     68  65  92 S14       29.91S
TEMPLE         CLOUDY    69  66  90 S14       29.94S
KILLEEN-GRAY   CLOUDY    66  65  95 S13       29.91F
FORT HOOD      CLOUDY    66  64  94 S10       29.90S
GEORGETOWN     CLOUDY    70  63  78 S14       29.93S
LAGO VISTA     CLOUDY    69  66  91 S8        29.95S
SAN MARCOS     CLOUDY    70  66  88 S13       29.95S
NEW BRAUNFELS  CLOUDY    71  66  84 S9        29.93F
RANDOLPH AFB   CLOUDY    70  70 100 S10       29.94S
SAN ANTONIO    CLOUDY    69  66  90 S14       29.95S
STINSON        CLOUDY    71  67  87 SE7       29.92S FOG
PLEASANTON     NOT AVBL
LA GRANGE      PTCLDY    71  70  94 S8        29.93F FOG
GIDDINGS       CLOUDY    69  67  94 S8        29.96S FOG
$$

EAST TEXAS

CITY           SKY/WX    TMP DP  RH WIND       PRES   REMARKS
PARIS          CLOUDY    63  61  94 SE8       29.92F
CLARKSVILLE    NOT AVBL
TYLER          CLOUDY    71  67  87 S13       29.95R
LONGVIEW       CLOUDY    71  67  87 S9        29.95S
PALESTINE      CLOUDY    70  68  92 SE7       29.96F
NACOGDOCHES    MOCLDY    70  64  83 SE3       29.97S
$$

TEXAS HILL COUNTRY AND EDWARDS PLATEAU

CITY           SKY/WX    TMP DP  RH WIND       PRES   REMARKS
LLANO          CLOUDY    66  63  88 CALM      29.96S
HORSESHOE BAY    N/A     67  64  90 SE7       29.94S
KERRVILLE      CLOUDY    66  64  94 SE9       29.95S FOG
FREDERICKSBRG  CLOUDY    66  63  90 S8        29.95F
ROCKSPRINGS    CLOUDY    64  63  94 S9        29.96F FOG
HONDO          CLOUDY    69  67  93 SE14      29.92F FOG
UVALDE         SUNNY     62  61  97 CALM      29.91F FOG
DEL RIO        CLEAR     65  60  84 E6        29.88S
$$

SOUTHEAST TEXAS

CITY           SKY/WX    TMP DP  RH WIND       PRES   REMARKS
COLLEGE STN    CLOUDY    72  69  90 S8        29.95S
CALDWELL       NOT AVBL
CROCKETT       MOSUNNY   68  66  94 CALM      30.00R
BRENHAM        CLOUDY    73  71  93 S8        29.96F
HUNTSVILLE     CLOUDY    72  68  87 S7        29.97S
CONROE         CLOUDY    72  69  90 S10       29.97S
HOUSTON BUSH   CLOUDY    74  69  85 S9        29.98R
HOUSTON HOBBY  CLOUDY    73  70  90 S9        29.98R
PERLAND        CLOUDY    74  70  87 S8        30.00R
WHARTON        CLOUDY    73  70  91 S9        29.98R FOG
$$

THE UPPER TEXAS COAST

CITY           SKY/WX    TMP DP  RH WIND       PRES   REMARKS
ORANGE         CLOUDY    72  70  94 S12G20    30.03R
PORT ARTHUR    CLOUDY    72  68  87 S14G25    30.00S
GALVESTON      CLOUDY    71  69  93 SE15      29.99F FOG
ANGLETON       CLOUDY    74  72  93 S14       29.98S
BAY CITY       CLOUDY    73  73 100 S7        29.98R FOG
$$

TEXAS COASTAL BEND, RIO GRANDE PLAINS DEEP SOUTH TEXAS

CITY           SKY/WX    TMP DP  RH WIND       PRES   REMARKS
VICTORIA       CLOUDY    74  70  87 S9        29.95S FOG
BEEVILLE       CLOUDY    65  65 100 S15       29.93F FOG
ROCKPORT       CLOUDY    73  71  93 S9        29.94R FOG
PORT ARANSAS   CLOUDY    70  70  99 S8        29.94S FOG
PORT LAVACA    CLOUDY    72  72 100 CALM      29.96S FOG
CORPUS CHRISTI CLOUDY    74  72  93 S15       29.93S
KINGSVILLE NAS CLOUDY    75  73  93 SE7       29.92S FOG
COTULLA        PTCLDY    70  66  87 SE9       29.89F FOG
LAREDO         PTCLDY    72  68  87 SE13      29.89F
BROWNSVILLE    PTCLDY    74  72  93 S13       29.93S
PORT ISABEL    PTCLDY    74  72  93 S15       29.92S FOG
HEBBRONVILLE   CLOUDY    73  67  84 S10G18    29.91F
MCALLEN        CLOUDY    78  70  76 SE21G28   29.91S HAZE
WESLACO        CLOUDY    76  70  83 S17G26    29.90S HAZE
FALFURRIAS     CLOUDY    75  71  87 SE6       29.91S
EDINBURG       CLOUDY    79  69  73 S17G23    29.90F
$$



USA.gov is the U.S. government's official web portal to all federal, state and local government web resources and services.